Tracking 30258 objects as of 19-Feb-2025
HD Live streaming from Space Station
objects crossing your sky now

ONEWEB-0144

Track ONEWEB-0144 now!
10-day predictions
ONEWEB-0144 is classified as:


NORAD ID: 47290
Int'l Code: 2020-100AJ
Perigee: 1,219.3 km
Apogee: 1,222.4 km
Inclination: 87.9 °
Period: 109.7 minutes
Semi major axis: 7591 km
RCS: Unknown
Launch date: December 18, 2020
Source: United Kingdom (UK)
Launch site: VOSTOCHNY COSMODROME (VOSTO)
Your satellite tracking list
Your tracking list is empty




NASA's NSSDC Master Catalog

Two Line Element Set (TLE):
1 47290U 20100AJ  25050.55676858  .00000278  00000-0  73771-3 0  9992
2 47290  87.8814  86.7238 0002018  86.2444 273.8915 13.12441704201266
Source of the keplerian elements: AFSPC